Wetterdaten: Woche 09.11.09 - 15.11.09 (KW46)
Datum Zeit Temperatur Luftfeuchte Luftdruck Niederschlag Windrichtung Wind
09.11.2009 00:00 3,2 C 96 % 1003,1 hPa 0,6 l/m NO 9,4 km/h (2 Bft)
09.11.2009 01:00 2,9 C 96 % 1003,1 hPa 0,6 l/m NO 8,6 km/h (2 Bft)
09.11.2009 02:00 2,6 C 96 % 1003,4 hPa 0,6 l/m N-NO 5,9 km/h (2 Bft)
09.11.2009 03:00 2,4 C 96 % 1003,6 hPa 0,6 l/m N 5,9 km/h (2 Bft)
09.11.2009 04:00 2,1 C 96 % 1003,8 hPa 0,6 l/m N 6,1 km/h (2 Bft)
09.11.2009 05:00 1,6 C 96 % 1004,0 hPa 0,4 l/m N-NW 3,7 km/h (1 Bft)
09.11.2009 06:00 1,3 C 96 % 1004,3 hPa 0,8 l/m NW 5,1 km/h (1 Bft)
09.11.2009 07:00 1,4 C 97 % 1004,9 hPa 0,4 l/m N 2,1 km/h (1 Bft)
09.11.2009 08:00 1,8 C 97 % 1005,4 hPa 0,4 l/m N 1,3 km/h (1 Bft)
09.11.2009 09:00 2,1 C 97 % 1006,0 hPa 0,8 l/m NW 3,1 km/h (1 Bft)
09.11.2009 10:00 2,4 C 97 % 1006,4 hPa 0,4 l/m SW 4,3 km/h (1 Bft)
09.11.2009 11:00 2,6 C 96 % 1006,7 hPa 1,6 l/m SW 4,8 km/h (1 Bft)
09.11.2009 12:00 2,4 C 95 % 1007,0 hPa 1,2 l/m N 1,6 km/h (1 Bft)
09.11.2009 13:00 2,2 C 95 % 1007,5 hPa 1,6 l/m N 1,2 km/h (1 Bft)
09.11.2009 14:00 1,8 C 95 % 1007,8 hPa 1,2 l/m SW 3,5 km/h (1 Bft)
09.11.2009 15:00 1,8 C 96 % 1008,0 hPa 0,8 l/m SW 3,1 km/h (1 Bft)
09.11.2009 16:00 1,8 C 96 % 1008,4 hPa 0,4 l/m SW 2,8 km/h (1 Bft)
09.11.2009 17:00 1,8 C 96 % 1009,2 hPa 0,4 l/m SW 4,0 km/h (1 Bft)
09.11.2009 18:00 1,8 C 96 % 1009,7 hPa 0,4 l/m SW 2,9 km/h (1 Bft)
09.11.2009 19:00 1,7 C 97 % 1010,1 hPa 0,4 l/m S-SW 5,2 km/h (1 Bft)
09.11.2009 20:00 1,5 C 97 % 1010,3 hPa 0,0 l/m S-SW 4,0 km/h (1 Bft)
09.11.2009 21:00 1,5 C 97 % 1010,7 hPa 0,0 l/m S-SW 2,3 km/h (1 Bft)
09.11.2009 22:00 1,7 C 97 % 1010,7 hPa 0,0 l/m S-SW 2,4 km/h (1 Bft)
09.11.2009 23:00 1,8 C 97 % 1010,8 hPa 0,0 l/m S-SW 2,9 km/h (1 Bft)
10.11.2009 00:00 1,6 C 97 % 1011,0 hPa 0,0 l/m S-SW 1,9 km/h (1 Bft)
10.11.2009 01:00 1,3 C 97 % 1011,3 hPa 0,0 l/m W 4,8 km/h (1 Bft)
10.11.2009 02:00 1,5 C 97 % 1011,4 hPa 0,0 l/m N 2,4 km/h (1 Bft)
10.11.2009 03:00 1,7 C 97 % 1011,4 hPa 0,0 l/m W 2,4 km/h (1 Bft)
10.11.2009 04:00 1,7 C 97 % 1011,4 hPa 0,0 l/m N 0,9 km/h (0 Bft)
10.11.2009 05:00 1,8 C 98 % 1011,6 hPa 0,0 l/m N 0,8 km/h (0 Bft)
10.11.2009 06:00 1,9 C 98 % 1011,5 hPa 0,0 l/m W 2,7 km/h (1 Bft)
10.11.2009 07:00 2,0 C 98 % 1011,8 hPa 0,0 l/m W 6,6 km/h (2 Bft)
10.11.2009 08:00 2,3 C 98 % 1012,2 hPa 0,0 l/m W-SW 6,1 km/h (2 Bft)
10.11.2009 09:00 2,7 C 97 % 1012,2 hPa 0,0 l/m W-SW 5,3 km/h (1 Bft)
10.11.2009 10:00 3,3 C 96 % 1012,1 hPa 0,0 l/m W-SW 7,6 km/h (2 Bft)
10.11.2009 11:00 4,0 C 93 % 1012,0 hPa 0,0 l/m W-SW 8,8 km/h (2 Bft)
10.11.2009 12:00 4,4 C 91 % 1011,4 hPa 0,0 l/m W-SW 10,9 km/h (2 Bft)
10.11.2009 13:00 4,7 C 90 % 1010,9 hPa 0,0 l/m SW 11,4 km/h (2 Bft)
10.11.2009 14:00 4,7 C 90 % 1010,6 hPa 0,0 l/m W-SW 8,3 km/h (2 Bft)
10.11.2009 15:00 4,6 C 90 % 1010,5 hPa 0,0 l/m W-SW 7,5 km/h (2 Bft)
10.11.2009 16:00 4,2 C 91 % 1010,5 hPa 0,0 l/m W 6,3 km/h (2 Bft)
10.11.2009 17:00 4,0 C 91 % 1010,7 hPa 0,0 l/m SW 3,5 km/h (1 Bft)
10.11.2009 18:00 3,9 C 93 % 1010,7 hPa 0,0 l/m SW 3,1 km/h (1 Bft)
10.11.2009 19:00 3,8 C 94 % 1010,6 hPa 0,2 l/m SW 3,6 km/h (1 Bft)
10.11.2009 20:00 3,6 C 95 % 1010,5 hPa 0,0 l/m SW 4,7 km/h (1 Bft)
10.11.2009 21:00 3,6 C 95 % 1010,6 hPa 0,0 l/m W-SW 3,5 km/h (1 Bft)
10.11.2009 22:00 3,5 C 96 % 1010,5 hPa 0,0 l/m W-SW 2,9 km/h (1 Bft)
10.11.2009 23:00 3,4 C 96 % 1010,4 hPa 0,0 l/m W-SW 1,7 km/h (1 Bft)
11.11.2009 00:00 3,4 C 96 % 1010,3 hPa 0,0 l/m N 0,3 km/h (0 Bft)
11.11.2009 01:00 3,3 C 96 % 1010,2 hPa 0,0 l/m N 1,7 km/h (1 Bft)
11.11.2009 02:00 3,3 C 96 % 1010,1 hPa 0,0 l/m W-SW 3,7 km/h (1 Bft)
11.11.2009 03:00 3,2 C 97 % 1010,1 hPa 0,0 l/m W 1,3 km/h (1 Bft)
11.11.2009 04:00 3,2 C 97 % 1010,0 hPa 0,0 l/m W 2,1 km/h (1 Bft)
11.11.2009 05:00 3,2 C 97 % 1010,1 hPa 0,0 l/m N 2,3 km/h (1 Bft)
11.11.2009 06:00 3,1 C 97 % 1010,3 hPa 0,0 l/m N 0,7 km/h (0 Bft)
11.11.2009 07:00 3,1 C 97 % 1010,3 hPa 0,0 l/m N 0,3 km/h (0 Bft)
11.11.2009 08:00 3,2 C 97 % 1010,5 hPa 0,0 l/m N 0,1 km/h (0 Bft)
11.11.2009 09:00 3,5 C 98 % 1010,6 hPa 0,0 l/m SW 1,3 km/h (1 Bft)
11.11.2009 10:00 4,1 C 98 % 1010,6 hPa 0,0 l/m SW 1,9 km/h (1 Bft)
11.11.2009 11:00 5,0 C 95 % 1010,5 hPa 0,0 l/m SW 3,1 km/h (1 Bft)
11.11.2009 12:00 5,8 C 90 % 1010,1 hPa 0,0 l/m N-NW 2,8 km/h (1 Bft)
11.11.2009 13:00 6,4 C 86 % 1010,0 hPa 0,0 l/m NW 5,1 km/h (1 Bft)
11.11.2009 14:00 6,7 C 84 % 1009,9 hPa 0,0 l/m NW 3,9 km/h (1 Bft)
11.11.2009 15:00 6,7 C 81 % 1010,1 hPa 0,0 l/m N 2,5 km/h (1 Bft)
11.11.2009 16:00 6,5 C 83 % 1010,1 hPa 0,0 l/m N 0,9 km/h (0 Bft)
11.11.2009 17:00 5,9 C 88 % 1010,3 hPa 0,0 l/m N 0,3 km/h (0 Bft)
11.11.2009 18:00 5,2 C 90 % 1010,5 hPa 0,0 l/m N 0,3 km/h (0 Bft)
11.11.2009 19:00 4,7 C 91 % 1010,7 hPa 0,0 l/m N 0,0 km/h (0 Bft)
11.11.2009 20:00 4,2 C 92 % 1011,1 hPa 0,0 l/m N 0,0 km/h (0 Bft)
11.11.2009 21:00 2,9 C 91 % 1011,4 hPa 0,0 l/m N 0,7 km/h (0 Bft)
11.11.2009 22:00 1,6 C 92 % 1011,6 hPa 0,0 l/m N 0,1 km/h (0 Bft)
11.11.2009 23:00 0,5 C 93 % 1011,6 hPa 0,0 l/m N 0,5 km/h (0 Bft)
12.11.2009 00:00 -0,1 C 95 % 1011,7 hPa 0,0 l/m N 0,0 km/h (0 Bft)
12.11.2009 01:00 -0,3 C 96 % 1012,1 hPa 0,0 l/m N 0,1 km/h (0 Bft)
12.11.2009 02:00 -0,7 C 96 % 1012,3 hPa 0,0 l/m N 1,6 km/h (1 Bft)
12.11.2009 03:00 -0,3 C 97 % 1012,0 hPa 0,0 l/m S-SW 3,9 km/h (1 Bft)
12.11.2009 04:00 0,7 C 98 % 1011,7 hPa 0,0 l/m SW 13,7 km/h (3 Bft)
12.11.2009 05:00 1,2 C 98 % 1011,5 hPa 0,2 l/m S-SW 8,7 km/h (2 Bft)
12.11.2009 06:00 0,6 C 98 % 1011,6 hPa 0,0 l/m S-SW 3,5 km/h (1 Bft)
12.11.2009 07:00 0,3 C 98 % 1011,8 hPa 0,0 l/m SW 2,4 km/h (1 Bft)
12.11.2009 08:00 0,6 C 98 % 1012,0 hPa 0,0 l/m S-SW 6,0 km/h (2 Bft)
12.11.2009 09:00 0,9 C 99 % 1012,5 hPa 0,0 l/m S-SO 3,7 km/h (1 Bft)
12.11.2009 10:00 2,2 C 99 % 1012,8 hPa 0,0 l/m S-SO 5,5 km/h (1 Bft)
12.11.2009 11:00 3,1 C 99 % 1012,8 hPa 0,6 l/m SW 13,9 km/h (3 Bft)
12.11.2009 12:00 3,4 C 99 % 1012,5 hPa 0,0 l/m S-SW 18,5 km/h (3 Bft)
12.11.2009 13:00 4,0 C 98 % 1012,6 hPa 0,4 l/m W-SW 14,0 km/h (3 Bft)
12.11.2009 14:00 4,7 C 98 % 1012,9 hPa 0,0 l/m W-SW 10,2 km/h (2 Bft)
12.11.2009 15:00 5,3 C 97 % 1013,6 hPa 0,0 l/m SW 11,0 km/h (2 Bft)
12.11.2009 16:00 5,3 C 97 % 1014,0 hPa 0,0 l/m SW 9,0 km/h (2 Bft)
12.11.2009 17:00 5,1 C 96 % 1014,5 hPa 0,0 l/m S-SW 3,7 km/h (1 Bft)
12.11.2009 18:00 4,7 C 96 % 1014,8 hPa 0,0 l/m SW 2,0 km/h (1 Bft)
12.11.2009 19:00 4,1 C 95 % 1014,7 hPa 0,0 l/m N 0,7 km/h (0 Bft)
12.11.2009 20:00 3,8 C 96 % 1015,0 hPa 0,0 l/m N 0,7 km/h (0 Bft)
12.11.2009 21:00 4,1 C 98 % 1015,5 hPa 0,8 l/m O-NO 2,7 km/h (1 Bft)
12.11.2009 22:00 4,6 C 98 % 1015,4 hPa 0,0 l/m O-NO 2,1 km/h (1 Bft)
12.11.2009 23:00 4,1 C 98 % 1015,3 hPa 0,0 l/m O-NO 2,1 km/h (1 Bft)
13.11.2009 00:00 4,9 C 99 % 1015,3 hPa 0,2 l/m SW 11,4 km/h (2 Bft)
13.11.2009 01:00 6,8 C 99 % 1015,1 hPa 0,0 l/m SW 14,5 km/h (3 Bft)
13.11.2009 02:00 6,6 C 98 % 1015,4 hPa 0,0 l/m S 8,9 km/h (2 Bft)
13.11.2009 03:00 5,6 C 97 % 1015,2 hPa 0,0 l/m S 3,3 km/h (1 Bft)
13.11.2009 04:00 6,1 C 98 % 1015,3 hPa 0,0 l/m W-SW 7,1 km/h (2 Bft)
13.11.2009 05:00 6,5 C 98 % 1015,6 hPa 0,4 l/m SW 8,6 km/h (2 Bft)
13.11.2009 06:00 6,6 C 96 % 1015,8 hPa 0,0 l/m SW 15,6 km/h (3 Bft)
13.11.2009 07:00 6,6 C 95 % 1016,1 hPa 0,0 l/m O 7,9 km/h (2 Bft)
13.11.2009 08:00 6,3 C 96 % 1016,5 hPa 0,0 l/m O-SO 7,5 km/h (2 Bft)
13.11.2009 09:00 7,6 C 95 % 1016,7 hPa 0,0 l/m S-SW 9,9 km/h (2 Bft)
13.11.2009 10:00 9,9 C 85 % 1016,8 hPa 0,0 l/m S 10,1 km/h (2 Bft)
13.11.2009 11:00 10,0 C 85 % 1016,6 hPa 0,0 l/m SO 4,5 km/h (1 Bft)
13.11.2009 12:00 11,5 C 81 % 1016,2 hPa 0,0 l/m S-SW 7,3 km/h (2 Bft)
13.11.2009 13:00 11,5 C 81 % 1015,5 hPa 0,0 l/m S-SW 7,5 km/h (2 Bft)
13.11.2009 14:00 11,5 C 81 % 1015,4 hPa 0,0 l/m SW 4,5 km/h (1 Bft)
13.11.2009 15:00 11,7 C 82 % 1015,5 hPa 0,0 l/m SW 3,1 km/h (1 Bft)
13.11.2009 16:00 11,3 C 84 % 1015,4 hPa 0,0 l/m SW 2,0 km/h (1 Bft)
13.11.2009 17:00 9,9 C 86 % 1015,7 hPa 0,0 l/m SW 2,3 km/h (1 Bft)
13.11.2009 18:00 8,6 C 90 % 1015,8 hPa 0,0 l/m SO 3,7 km/h (1 Bft)
13.11.2009 19:00 7,9 C 92 % 1016,3 hPa 0,0 l/m SW 2,9 km/h (1 Bft)
13.11.2009 20:00 6,8 C 94 % 1016,5 hPa 0,0 l/m S 2,5 km/h (1 Bft)
13.11.2009 21:00 6,2 C 95 % 1016,4 hPa 0,0 l/m N 0,1 km/h (0 Bft)
13.11.2009 22:00 5,5 C 96 % 1016,2 hPa 0,0 l/m N 0,8 km/h (0 Bft)
13.11.2009 23:00 4,9 C 96 % 1015,7 hPa 0,0 l/m N 1,1 km/h (0 Bft)
14.11.2009 00:00 4,2 C 96 % 1015,2 hPa 0,0 l/m N 0,8 km/h (0 Bft)
14.11.2009 01:00 3,7 C 96 % 1014,4 hPa 0,0 l/m S 2,4 km/h (1 Bft)
14.11.2009 02:00 3,6 C 97 % 1014,0 hPa 0,0 l/m N 0,9 km/h (0 Bft)
14.11.2009 03:00 3,1 C 97 % 1013,6 hPa 0,0 l/m N 0,3 km/h (0 Bft)
14.11.2009 04:00 2,7 C 97 % 1013,1 hPa 0,0 l/m W-NW 1,9 km/h (1 Bft)
14.11.2009 05:00 3,1 C 98 % 1012,8 hPa 0,2 l/m W-NW 3,5 km/h (1 Bft)
14.11.2009 06:00 3,2 C 98 % 1012,3 hPa 0,0 l/m N 2,3 km/h (1 Bft)
14.11.2009 07:00 3,1 C 98 % 1012,4 hPa 0,0 l/m N-NW 4,1 km/h (1 Bft)
14.11.2009 08:00 3,3 C 98 % 1012,7 hPa 0,0 l/m N-NW 5,3 km/h (1 Bft)
14.11.2009 09:00 3,5 C 98 % 1013,1 hPa 0,0 l/m N-NW 2,8 km/h (1 Bft)
14.11.2009 10:00 4,3 C 99 % 1012,9 hPa 0,0 l/m N 0,8 km/h (0 Bft)
14.11.2009 11:00 7,4 C 92 % 1012,8 hPa 0,0 l/m N-NW 0,9 km/h (0 Bft)
14.11.2009 12:00 8,8 C 89 % 1012,5 hPa 0,0 l/m N-NW 2,7 km/h (1 Bft)
14.11.2009 13:00 9,9 C 87 % 1012,5 hPa 0,0 l/m S 8,0 km/h (2 Bft)
14.11.2009 14:00 11,7 C 82 % 1012,5 hPa 0,0 l/m S-SW 11,3 km/h (2 Bft)
14.11.2009 15:00 11,6 C 83 % 1012,7 hPa 0,0 l/m SW 10,3 km/h (2 Bft)
14.11.2009 16:00 10,5 C 87 % 1013,0 hPa 0,0 l/m O-SO 5,3 km/h (1 Bft)
14.11.2009 17:00 9,7 C 88 % 1013,5 hPa 0,0 l/m N 1,2 km/h (1 Bft)
14.11.2009 18:00 8,6 C 90 % 1014,7 hPa 0,0 l/m W 8,8 km/h (2 Bft)
14.11.2009 19:00 9,6 C 84 % 1016,3 hPa 0,0 l/m W-NW 22,8 km/h (4 Bft)
14.11.2009 20:00 9,0 C 88 % 1017,4 hPa 2,2 l/m W-NW 22,8 km/h (4 Bft)
14.11.2009 21:00 8,5 C 91 % 1017,2 hPa 0,2 l/m SW 20,8 km/h (4 Bft)
14.11.2009 22:00 7,9 C 94 % 1017,6 hPa 0,0 l/m SW 16,6 km/h (3 Bft)
14.11.2009 23:00 7,3 C 97 % 1017,7 hPa 0,0 l/m W-SW 16,8 km/h (3 Bft)
15.11.2009 00:00 7,6 C 97 % 1017,9 hPa 0,0 l/m W-SW 14,9 km/h (3 Bft)
15.11.2009 01:00 7,5 C 94 % 1017,9 hPa 0,0 l/m W-SW 8,3 km/h (2 Bft)
15.11.2009 02:00 6,9 C 95 % 1018,0 hPa 0,0 l/m W-SW 11,7 km/h (2 Bft)
15.11.2009 03:00 7,3 C 93 % 1017,8 hPa 0,0 l/m W-SW 19,3 km/h (3 Bft)
15.11.2009 04:00 7,6 C 90 % 1017,3 hPa 0,0 l/m W-SW 19,2 km/h (3 Bft)
15.11.2009 05:00 7,1 C 89 % 1017,0 hPa 0,0 l/m O-SO 8,0 km/h (2 Bft)
15.11.2009 06:00 5,5 C 93 % 1017,1 hPa 0,0 l/m N 2,1 km/h (1 Bft)
15.11.2009 07:00 4,7 C 93 % 1017,2 hPa 0,0 l/m N 0,5 km/h (0 Bft)
15.11.2009 08:00 4,3 C 95 % 1017,5 hPa 0,0 l/m SO 1,9 km/h (1 Bft)
15.11.2009 09:00 4,9 C 97 % 1017,5 hPa 0,0 l/m N 0,5 km/h (0 Bft)
15.11.2009 10:00 6,0 C 98 % 1017,5 hPa 0,0 l/m N 0,1 km/h (0 Bft)
15.11.2009 11:00 7,1 C 97 % 1017,1 hPa 0,0 l/m O-SO 0,7 km/h (0 Bft)
15.11.2009 12:00 8,0 C 93 % 1016,7 hPa 0,0 l/m O-SO 1,3 km/h (1 Bft)
15.11.2009 13:00 8,9 C 92 % 1016,2 hPa 0,0 l/m O-SO 1,7 km/h (1 Bft)
15.11.2009 14:00 9,1 C 91 % 1015,8 hPa 0,0 l/m O-SO 5,6 km/h (1 Bft)
15.11.2009 15:00 8,9 C 91 % 1015,8 hPa 0,0 l/m SW 11,8 km/h (2 Bft)
15.11.2009 16:00 8,4 C 94 % 1015,5 hPa 0,0 l/m SW 10,2 km/h (2 Bft)
15.11.2009 17:00 8,2 C 95 % 1014,9 hPa 0,2 l/m W 9,4 km/h (2 Bft)
15.11.2009 18:00 9,1 C 89 % 1014,4 hPa 0,0 l/m W 11,4 km/h (2 Bft)
15.11.2009 19:00 8,8 C 90 % 1014,3 hPa 0,0 l/m SW 4,3 km/h (1 Bft)
15.11.2009 20:00 8,0 C 94 % 1013,7 hPa 0,0 l/m N 1,7 km/h (1 Bft)
15.11.2009 21:00 7,6 C 95 % 1013,4 hPa 0,0 l/m S-SW 1,2 km/h (1 Bft)
15.11.2009 22:00 7,3 C 96 % 1013,2 hPa 0,0 l/m N-NO 4,1 km/h (1 Bft)
15.11.2009 23:00 7,2 C 97 % 1013,4 hPa 0,2 l/m W-SW 2,1 km/h (1 Bft)
Min-Datum _ 12.11.09 14.11.09 09.11.09 - - 09.11.09
_ Min-Zeit 02:10 14:55 00:00 - - 07:20
Minimum _ -0,7 C 78 % 1003,0 hPa - - 0,0 km/h (0 Bft)
Max-Datum _ 13.11.09 13.11.09 15.11.09 14.11.09 - 14.11.09
_ Max-Zeit 12:40 00:50 02:25 20:45 - 20:50
Maximum _ 12,1 C 100 % 1018,2 hPa 2,2 l/m - 37,0 km/h
W-NW (5 Bft)
Durchschnitt _ 4,8 C 94 % 1012,5 hPa #20,0 l/m SW 5,1 km/h (1 Bft)